Regional Weather Roundup
Issued by NWS

Home | Current Version | Previous Version | Graphics & Text | Print | Product List | Glossary On
Versions: 1 2 3 4 5 6 7 8 9 10 11 12 13 14 15 16 17 18 19 20 21 22 23 24 25 26 27 28 29 30 31 32 33 34 35 36 37 38 39 40 41 42 43 44 45 46 47 48 49 50
000
ASUS43 KLOT 200603
RWRIL

ILLINOIS REGIONAL WEATHER ROUNDUP
NATIONAL WEATHER SERVICE CHICAGO/ROMEOVILLE IL
100 AM CDT FRI APR 20 2018

NOTE: "FAIR" INDICATES FEW OR NO CLOUDS BELOW 12,000 FEET WITH NO
SIGNIFICANT WEATHER AND/OR OBSTRUCTIONS TO VISIBILITY.

* THESE STATIONS ARE NOT UNDER NWS QUALITY CONTROL. THEY ALSO MAY NOT
  REPORT WEATHER SUCH AS PRECIPITATION OR FOG.

ILZ001-002-007-009-015-016-024-200700-
NORTHWEST ILLINOIS

CITY           SKY/WX    TMP DP  RH WIND       PRES   REMARKS
MOLINE         FAIR      30  25  81 E3        30.45S
6HR MIN TEMP:  28; 6HR MAX TEMP:  52;

STERLING*      FAIR      32  29  88 SE3       30.46R
SAVANNA*       FAIR      31  29  90 CALM      30.46S
$$

ILZ003-004-008-010-011-017-018-200700-
NORTH CENTRAL ILLINOIS

CITY           SKY/WX    TMP DP  RH WIND       PRES   REMARKS
ROCKFORD       FAIR      30  25  81 CALM      30.47R
6HR MIN TEMP:  29; 6HR MAX TEMP:  50;

FREEPORT*      FAIR      30  24  79 W3        30.48R
ROCHELLE*      FAIR      29  27  94 CALM      30.46S
DE KALB*       FAIR      34  23  64 NW5       30.45S WCI  29
PERU*          FAIR      35  30  82 CALM      30.46F
$$

ILZ005-006-012>014-019>023-200700-
NORTHEAST ILLINOIS

CITY           SKY/WX    TMP DP  RH WIND       PRES   REMARKS
CHICAGO-OHARE  FAIR      39  23  52 W5        30.43S
6HR MIN TEMP:  38; 6HR MAX TEMP:  49;

CHICAGO-MIDWAY FAIR      39  24  55 CALM      30.44S
6HR MIN TEMP:  38; 6HR MAX TEMP:  50;

AURORA         FAIR      28  25  88 CALM      30.44S
6HR MIN TEMP:  28; 6HR MAX TEMP:  48;

LANSING*       FAIR      30  29  94 CALM      30.44F
JOLIET*        FAIR      33  27  79 CALM      30.45S
WAUKEGAN       FAIR      35  25  66 W6        30.42  WCI  30
6HR MIN TEMP:  35; 6HR MAX TEMP:  46;

DUPAGE AIRPORT FAIR      32  26  78 CALM      30.43S
6HR MIN TEMP:  31; 6HR MAX TEMP:  49;

KANKAKEE*      FAIR      32  24  72 W3        30.45S
WHEELING       FAIR      34  25  69 CALM      30.45S
6HR MIN TEMP:  34; 6HR MAX TEMP:  49;

MORRIS*        FAIR      33  25  72 CALM      30.44S
ROMEOVILLE*    FAIR      36  24  61 CALM      30.45R
$$

LMZ740>746-200700-
SOUTHERN LAKE MICHIGAN

STATION/POSITION SKY/WX   TEMP    WIND        PRES    VSBY  WAVE
                          AIR SEA DIR/SP/G                  HT/PER
                          (F)     (DEG/KT/KT) (MB)    (MI)  (FT/S)
HARRISON CRIB              44     290/  8/ 10   N/A
BURNHAM HARBOR             43     250/  6/  9   N/A
CALUMET HARBOR             41     240/  3/  4 1030.0R
BURNS HARBOR               41     280/  4/  5 1031.2S
MICHIGAN CITY              39     290/  7/  8   N/A
$$

ILZ025>027-034>036-040-047-049-050-058-095>099-200700-
WEST-CENTRAL ILLINOIS

CITY           SKY/WX    TMP DP  RH WIND       PRES   REMARKS
QUINCY         CLEAR     43  24  47 E7        30.44R
GALESBURG*     FAIR      34  28  80 CALM      30.46R
MACOMB*        CLEAR     32  25  74 NE5       30.47S WCI  27
JACKSONVILLE*  CLEAR     37  26  62 E3        30.45R
PITTSFIELD*    CLEAR     37  30  75 CALM      30.45R
$$

ILZ028>032-037-038-041>044-048-051>054-059>061-200700-
CENTRAL ILLINOIS

CITY           SKY/WX    TMP DP  RH WIND       PRES   REMARKS
PONTIAC        FAIR      33  26  73 CALM      30.46R
BLOOMINGTON    FAIR      36  26  67 N6        30.45S WCI  31
DECATUR        FAIR      36  28  73 NE7       30.44R WCI  30
PEORIA         FAIR      40  27  59 CALM      30.46R
6HR MIN TEMP:  39; 6HR MAX TEMP:  54;

LACON*         FAIR      31  27  85 CALM      30.45S
LINCOLN*       FAIR      38  30  73 N5        30.45S WCI  35
SPRINGFIELD    FAIR      39  28  64 NE6       30.45R WCI  35
6HR MIN TEMP:  39; 6HR MAX TEMP:  55;

TAYLORVILLE    FAIR      38  28  65 NE6       30.44S WCI  34
6HR MIN TEMP:  37; 6HR MAX TEMP:  53;

$$

ILZ033-039-045-046-055>057-062-063-200700-
EAST-CENTRAL ILLINOIS

CITY           SKY/WX    TMP DP  RH WIND       PRES   REMARKS
CHAMPAIGN      FAIR      37  19  48 NE6       30.44R WCI  32
DANVILLE*      FAIR      32  23  69 NW3       30.41S
RANTOUL*       FAIR      39  25  57 N3        30.44R
PARIS*         FAIR      38  19  46 CALM      30.44S
$$

ILZ079-100>102-200700-
SOUTHWEST ILLINOIS

CITY           SKY/WX    TMP DP  RH WIND       PRES   REMARKS
BELLEVILLE     CLEAR     42  30  61 N3        30.42R
CAHOKIA*       CLEAR     35  33  92 CALM      30.43R
SPARTA*        CLEAR     43  33  68 N5        30.43R
$$

ILZ064>066-069>071-074>076-080>082-084>086-088>090-092>094-200700-
SOUTH-CENTRAL ILLINOIS

CITY           SKY/WX    TMP DP  RH WIND       PRES   REMARKS
CARBONDALE     FAIR      35  34  96 N5        30.41R WCI  31
6HR MIN TEMP:  35; 6HR MAX TEMP:  52;

CAIRO*         FAIR      39  36  87 N3        30.39S
EFFINGHAM*     FAIR      43  31  63 N3        30.45R
MARION         FAIR      33  32  97 CALM      30.42R
MT. VERNON     FAIR      33  31  92 N3        30.42R
CENTRALIA*     CLEAR     39  34  80 N3        30.42R
SALEM*         FAIR      44  30  58 N7        30.42S
METROPOLIS*    FAIR      40  33  76 N3        30.40R
$$

ILZ067-068-072-073-078-083-087-091-200700-
SOUTHEAST ILLINOIS

CITY           SKY/WX    TMP DP  RH WIND       PRES   REMARKS
LAWRENCEVILLE  FAIR      43  20  39 NE10      30.42R
FLORA*         FAIR      43  31  63 N6        30.42S
FAIRFIELD*     FAIR      42  31  65 N3        30.41R
HARRISBURG*    FAIR      40  32  74 CALM      30.41R
ROBINSON*      FAIR      38  20  46 NE8       30.44R WCI  33
CARMI*         FAIR      40  32  72 N5        30.40S
$$

ABBREVIATIONS USED IN REMARKS
   TC - TEMPERATURE IN CELSIUS
  WCI - WIND CHILL INDEX
   HX - HEAT INDEX
  VSB - VISIBILITY
$$





USA.gov is the U.S. government's official web portal to all federal, state and local government web resources and services.